This is the latest recevied weather packets stored in our database for station/object CALDNA-WX. If no packets are shown the sender has not sent any weather packets the latest 1 day(s).
| Time | Temp. | Humidity | Pressure | Rain* | Wind** | Luminosity | Snow |
|---|---|---|---|---|---|---|---|
| 1777968923 | 11.67° C | 71% | 973.4 hPa | 0 mm | 3.58 m/s, 259° | - | - |
| 1777968050 | 11.67° C | 48% | 973.6 hPa | 0 mm | 3.58 m/s, 245° | - | - |
| 1777967123 | 12.22° C | 74% | 972.9 hPa | 0 mm | 4.47 m/s, 247° | - | - |
| 1777966244 | 12.78° C | 74% | 972.9 hPa | 0 mm | 4.47 m/s, 247° | - | - |
| 1777965324 | 13.33° C | 74% | 972.9 hPa | 0 mm | 5.36 m/s, 246° | - | - |
| 1777964452 | 13.33° C | 74% | 972.9 hPa | 0 mm | 4.92 m/s, 224° | - | - |
| 1777963523 | 13.33° C | 67% | 973.3 hPa | 0 mm | 4.02 m/s, 239° | - | - |
| 1777962640 | 13.89° C | 76% | 972.7 hPa | 0 mm | 4.92 m/s, 241° | - | - |
| 1777961724 | 13.89° C | 76% | 972.7 hPa | 0 mm | 4.92 m/s, 236° | - | - |
| 1777960856 | 13.89° C | 76% | 972.7 hPa | 0 mm | 5.36 m/s, 234° | - | - |
| 1777959924 | 14.44° C | 72% | 974 hPa | 0 mm | 5.81 m/s, 236° | - | - |
| 1777959046 | 14.44° C | 63% | 972.5 hPa | 0 mm | 5.36 m/s, 248° | - | - |
| 1777958123 | 15.56° C | 63% | 972.6 hPa | 0 mm | 6.26 m/s, 248° | - | - |
| 1777957248 | 16.11° C | 63% | 972.6 hPa | 0 mm | 6.26 m/s, 245° | - | - |
| 1777956323 | 16.11° C | 63% | 972.2 hPa | 0 mm | 6.26 m/s, 239° | - | - |
| 1777955445 | 16.11° C | 59% | 972.2 hPa | 0 mm | 6.71 m/s, 232° | - | - |
| 1777954523 | 16.67° C | 59% | 972.4 hPa | 0 mm | 4.92 m/s, 216° | - | - |
| 1777953653 | 17.22° C | 59% | 972.4 hPa | 0 mm | 4.47 m/s, 250° | - | - |
| 1777952720 | 17.22° C | 58% | 972.2 hPa | 0 mm | 6.71 m/s, 244° | - | - |
| 1777951843 | 16.67° C | 62% | 972.2 hPa | 0 mm | 7.15 m/s, 215° | - | - |
| 1777950923 | 16.67° C | 62% | 972.2 hPa | 0 mm | 7.15 m/s, 206° | - | - |
* Rain latest hour (hover to see other rain measurements)
** Current wind speed in m/s (hover to see current wind gust speed)